CZ-3B DEB, 40169

Orbit data source: Space-Track

CZ-3B DEB, 40169 is space debris in HEO originally from a launch on Sat, 04 Sep 2010 UTC launched from the Xichang Space Center, China (XSC). Debris objects in space refer to the collection of defunct objects orbiting the Earth. Examples of debris include non-operational satellites, rocket bodies, and fragments generated from explosions, collisions, or faulty payload assembly.

Loading next visibility...
Identifier
40169, 2010-042W
Orbit
HEO
Last TLE update
7 hours ago
Origin
Manufacturer
CALT
Mission
Spacecraft
Bus & Motor
Unknown
Mass
Unknown
Launch date (UTC)
2010-09-04 (15 years ago)
Launch vehicle
Unknown
Launch site
Xichang Space Center, China (XSC)
Object type
Payload
Rocket body
Debris
Shape & HBR
Unknown
Radar Cross Section
Medium (>0.1 m² and <1 m²)

Expand to show TLE details & history

TLE from 7 hours ago
0 CZ-3B DEB
1 40169U 10042W   25183.87229035  .00000143  00000-0  00000+0 0  9999
2 40169  27.0376 321.6752 7188431 255.1200  18.2430  1.93971882 91062
Epoch: 2025-07-02T20:56Z
TLE epoch observation values (Epoch: 2025-07-02T20:56:05.886Z)
Latitude
-3.51167°
Longitude
79.5894°
Altitude
8,048.919 km
Speed
6.37 km/s
True Right ascension
20h 59m 02s
True Declination
-3° 30' 05"
Sunlit
Object was in daylight at epoch
Visualization orbit readout
Latitude
26.76579°
Longitude
167.35142°
Altitude
39,512.094 km
Speed
1.642 km/s
Apparent Right ascension
02h 52m 27s
Apparent Declination
19° 52' 36"
Sunlit
Object is in daylight
Visualization observer readout
Local Sidereal Time
15:12:13
Azimuth
5.37° NNE
Elevation
-30.03°
Doppler factor
1
Orbital elements
Apogee altitude
40,309.198 km
Perigee altitude
1,258.666 km
Semi-major axis
27,162.069 km
Eccentricity
0.71884
Inclination
27.0376°
RAAN
321.6752°
Arg. of periapsis
255.12°
True anomaly
Unknown
Mean anomaly
18.243°
Eccentric anomaly
Unknown
Mean motion
0.48484 °/min
Orbital period
742.51 mins
BSTAR
0
Loading maneuver chart data...
Loading SW <> Apogee altitude chart data...
Loading historical data...
Loading historical data...
Loading historical data...
Loading historical data...
Loading historical data...
Loading historical data...
Loading historical data...

CZ-3B DEB Visibility forecast

Observer location: undefined°, undefined°

Span
Click to sort rows by Start time (UTC) header in descending order
Start Az.
Max El. time (UTC)
Max El. Az.
Max El.
End time (UTC)
End Az.
691 mins2025-07-03 09:10:02.286Z192.816° SSW2025-07-03 14:40:02.286Z191.175° SSW43.807°2025-07-03 20:41:02.286Z156.683° SSE
|